Kosmos-713

operational
NORAD ID: 7680 Int'l Des: 1975-016 Owner: GUKOSR Country: SU
LEOCIRCULAR

About Kosmos-713

Description loading...

Live Position

Loading 3D Globe...

Upcoming Passes

Altitude History

Altitude vs Time

uPlot chart will show altitude changes over time

Two-Line Element Set

1 7680U 75016C 26101.76696722 -.00000003 00000-0 84124-4 0 9992
2 7680 73.9999 108.0326 0059328 246.9403 286.9831 12.55674855343065
Epoch: Apr 11, 2026 • Age: 11 hours

Current Status

Altitude 1492.2 km
Velocity 7.10 km/s
Sub-Earth Point 47.33°N, 153.25°W
Type other

Large Constellations

Loading constellations...